User: anonymous   Login
Location: Brno
(49.2000°N, 16.6330°E)
Time: 08:16:57
(UTC+02:00)
Language:

BREEZE M DEB (TANK) - Orbit

View from above orbital plane
View from above orbital plane
View from above satellite
View from above satellite

Ground track
Ground track

The orbit data is extracted from the following two-line orbital elements,

1 28359U 04022B   14297.38590174  .00003902  00000-0  62972-3 0  2845
2 28359 049.5271 286.5728 4704024 130.5314 005.9146 06.12042356225613
Epoch (UTC): 24 October 2014 09:15:41
Eccentricity: 0.4704024
inclination: 49.5271°
perigee height: 308 km
apogee height: 12185 km
right ascension of ascending node: 286.5728°
argument of perigee: 130.5314°
revolutions per day: 6.12042356
mean anomaly at epoch: 5.9146°
orbit number at epoch: 22561

The dashed part of the orbit path shows where the satellite is in the earth's shadow,  

DLR